Regional Weather Roundup
Issued by NWS

Home | Current Version | Previous Version | Graphics & Text | Print | Product List | Glossary On
Versions: 1 2 3 4 5 6 7 8 9 10 11 12 13 14 15 16 17 18 19 20 21 22 23 24 25 26 27 28 29 30 31 32 33 34 35 36 37 38 39 40 41 42 43 44 45 46 47 48 49 50
218
ASUS44 KLIX 142005
RWRLA
LOUISIANA WEATHER ROUNDUP
NATIONAL WEATHER SERVICE NEW ORLEANS LA
300 PM CDT SUN SEP 14 2014

NOTE: "FAIR" INDICATES FEW OR NO CLOUDS BELOW 12,000 FEET WITH NO
      SIGNIFICANT WEATHER AND/OR OBSTRUCTIONS TO VISIBILITY.
      SKY/WX - SKY CONDITION AND SIGNIFICANT WEATHER.
      TMP - AIR TEMPERATURE.    DP   - DEWPOINT TEMPERATURE.
      RH  - RELATIVE HUMIDITY.  PRES - PRESSURE.
      HX  - HEAT INDEX.         WCI  - WIND CHILL INDEX.

*  THESE STATIONS ARE NOT NWS OR FAA STATIONS AND ARE NOT UNDER
   NWS QUALITY CONTROL.

LAZ040-048-061>063-065-066-069-142100-
SOUTHEAST LOUISIANA

CITY           SKY/WX    TMP DP  RH WIND       PRES   REMARKS
N.O. AUDUBON   NOT AVBL
N.O. INTL ARPT MOSUNNY   87  72  60 NE7       30.07F
N.O. LAKEFRONT SUNNY     87  74  64 N6        30.07F HX  95
N.O. DOWNTOWN* FAIR      88  72  58 E5        30.06F
SLIDELL        MOSUNNY   90  72  55 VRB5      30.06F HX  97
BATON ROUGE    PTSUNNY   85  71  63 N6        30.08F
BOOTHVILLE     PTSUNNY   81  74  79 E9        30.06S
BELLE CHASSE   MOSUNNY   88  72  58 E9        30.06F
BOGALUSA*        N/A     89  71  55 NE5       30.08F HX  95
GALLIANO*      NOT AVBL
NEW ROADS*     MOCLDY    81  71  72 NW5       30.09F
GONZALES*      MOCLDY    86  76  70 N6        30.06F HX  96
HAMMOND*       MOSUNNY   90  70  51 N7        30.08F HX  95
HOUMA*         MOSUNNY   90  72  55 NE8       30.05F HX  96
PORT FOURCHON* CLEAR     86  73  66 NE14      30.08F

$$

LAZ041-044-053-054-142100-
SOUTHWEST LOUISIANA

CITY           SKY/WX    TMP DP  RH WIND       PRES   REMARKS
LAKE CHARLES   MOSUNNY   77  68  73 NE10      30.09F
LAFAYETTE      CLOUDY    80  71  74 NE13      30.09F
PATTERSON      MOSUNNY   86  75  70 NE12      30.09S HX  95
SALT POINT       N/A     87  75  67 VRB5      30.05F HX  96
NEW IBERIA     MOSUNNY   82  71  69 N10G18    30.08F
CHENAULT AIRPK PTSUNNY   75  66  73 N6        30.10F

$$

LAZ027-028-142100-
CENTRAL LOUISIANA

CITY           SKY/WX    TMP DP  RH WIND       PRES   REMARKS
FORT POLK      PTSUNNY   75  66  73 NE10G16   30.12F
ALEXANDRIA INT CLOUDY    76  67  73 VRB7      30.11F
ALEXANDRIA     CLOUDY    77  66  68 NE7       30.13F

$$

LAZ001-002-142100-
NORTHWEST LOUISIANA

CITY           SKY/WX    TMP DP  RH WIND       PRES   REMARKS
SHREVEPORT     PTSUNNY   84  64  50 NE6       30.13F
BARKSDALE AFB  NOT AVBL
DTN SHREVEPORT SUNNY     82  64  54 NE6       30.13F

$$

LAZ014-016-142100-
NORTHEAST LOUISIANA

CITY           SKY/WX    TMP DP  RH WIND       PRES   REMARKS
MONROE         PTSUNNY   75  64  68 N7        30.16F
TALLULAH       SUNNY     84  66  54 NE8       30.12F

$$




USA.gov is the U.S. government's official web portal to all federal, state and local government web resources and services.